Meath Environmental Platform

Observations

Time Sensor AQI SAQ Temp °C Hum % Pres Pa CO μg/m³ H₂S μg/m³ NO μg/m³ NO₂ μg/m³ O₃ μg/m³ SO₂ μg/m³ CO₂e PPM VOC PPM PM1 μg/m³ PM2.5 μg/m³ PM4 μg/m³ PM10 μg/m³ TPS µm
Thursday 13 August 2026
11:57 Trim Patrick St 2 30.5 49 69,547 0 0 0.69 13.33 65.12 16.25 2.86 7.23 7.95
11:56 Trim Patrick St 2 30.5 49 69,517 0 0 0.7 13.06 63.01 16.18 2.86 7.99 8.79
11:55 Trim Patrick St 2 30.4 50 69,543 0 0 0.68 13.52 61.97 15.78 2 6.43 7.07
11:54 Trim Market St 2 31.5 47 62,563 0 0 0.61 13.07 46.98 0 0 2.58 2.84
11:54 Trim Patrick St 2 30.4 50 69,545 0 0 0.71 13 62.89 16.09 2 7.16 7.88
11:53 Trim Market St 2 31.4 47 62,468 0 0 0.62 13.23 64.83 0 0.71 3.1 3.41
11:53 Trim Patrick St 2 30.3 50 69,545 0 2.5 0.68 13.45 62.16 15.89 2.86 7.18 7.89
11:52 Trim Market St 2 31.4 47 62,452 0 0 0.59 16.11 53.63 0 0 3.1 3.71
11:52 Trim Patrick St 2 30.3 50 69,567 0 3.22 0.65 12.94 59.38 15.77 2 7.18 7.9
11:51 Trim Market St 2 31.3 47 62,590 0 0 0.59 13.14 62.04 0 0.71 3.1 3.42
11:51 Trim Patrick St 2 30.2 50 69,569 0 1.73 0.59 13.42 63.55 15.91 2.86 7.95 8.75
11:50 Trim Market St 2 31.3 47 62,513 0 0 0.58 11.86 56.67 0 0 3.11 3.42
11:50 Trim Patrick St 2 30.2 50 69,543 0 2.05 0.62 13.37 63.67 16.02 2 6.43 7.07
11:49 Trim Market St 2 31.3 47 62,440 0 0 0.52 12.04 57.95 0 0.71 2.59 2.84
11:49 Trim Patrick St 2 30.1 50 69,539 0 1.85 0.66 13.27 61.8 16.04 2 6.43 7.08
11:48 Trim Patrick St 2 30.1 50 69,534 0 0 0.66 12.78 64.97 16.13 2.86 7.2 7.92
11:47 Trim Market St 2 31.2 47 62,102 0 0 0.51 10.26 45.75 0 0.71 3.61 3.72
11:47 Trim Patrick St 2 30.1 50 69,532 0 0 0.67 12.36 65.08 16.29 2.86 7.18 7.9
11:46 Trim Market St 2 31.2 47 61,818 0 0 0.51 12.67 65.99 0 0 2.05 2.26
11:46 Trim Patrick St 2 30.1 50 69,525 0 0 0.72 12.8 67.52 16.23 2 7.19 7.91